Showing default

FLOCK 4Q 13, 58328

Orbit data source: Space-Track

FLOCK 4Q 13, 58328 is a payload satellite owned by Planet (US) in SSO that was launched on Sat, 11 Nov 2023 UTC via an FALCON 9 launch vehicle from the Air Force Western Test Range (AFWTR). Payload-class satellites include a variety of spacecraft equipped with specific instruments for various scientific and technological missions. These include communications satellites like Starlink; space stations such as the ISS; scientific satellites like the Hubble; Earth observation satellites from companies like Planet Labs, Umbra, and HawkEye 360; GPS; miniature CubeSats for education and research; and military/defense satellites.

Not visible in the next 10 days
Identifier
58328, 2023-174CA
Orbit
SSO
Country
Flag of USUS
Related business
Manufacturer
Planet
Mission
Operational Commercial Imaging
Bus & Motor
CUBESAT 3U, Unknown motor
Mass
5.7 kg wet, 5.7 kg dry
Launch date (UTC)
2023-11-11 (2 years ago)
Launch vehicle
FALCON 9
Launch site
Air Force Western Test Range (AFWTR)
Object type
Payload
Rocket body
Debris
Shape & HBR
Box + 2 Pan, 1.0 m
Radar Cross Section
0.072 m², Medium (>0.1 m² and < 1m²)

Expand to show TLE details & history
Last TLE update: 18 hours ago

TLE from 18 hours ago
0 FLOCK 4Q 13
1 58328U 23174CA  25350.21785714  .00018063  00000-0  42226-3 0  9990
2 58328  97.4141  71.8611 0008155  98.0618 262.1554 15.42186337117384
Epoch: 2025-12-16T05:13Z
TLE epoch observation values (Epoch: 2025-12-16T05:13:42.856Z)
Latitude
-0.00012°
Longitude
-91.67268°
Altitude
443.542 km
Speed
7.645 km/s
True Right ascension
04h 47m 26s
True Declination
0° 00' 00"
Sunlit
Object was in full shadow at epoch
Visualization orbit readout
Latitude
Unknown
Longitude
Unknown
Altitude
Unknown
Speed
Unknown
Apparent Right ascension
Unknown
Apparent Declination
Unknown
Sunlit
N/A
Visualization observer readout
Local Sidereal Time
22:03:38
Azimuth
Unknown
Elevation
Unknown
Doppler factor
Unknown
Orbital elements
Apogee altitude
442.152 km
Perigee altitude
431.037 km
Semi-major axis
6,814.732 km
Eccentricity
0.00082
Inclination
97.4141°
RAAN
71.8611°
Arg. of periapsis
98.0618°
True anomaly
262.06284°
Mean anomaly
262.1554°
Eccentric anomaly
262.10912°
Mean motion
3.85807 °/min
Orbital period
93.31 mins
BSTAR
0.00042226
Loading maneuver chart data...
Computing Atmospheric mass density...
Loading historical data...
Loading historical data...
Loading historical data...
Loading historical data...
Loading historical data...
Loading historical data...
Loading historical data...

Documentation

Showing up to 5 results
|